SCP
1 1 2 2 1 1 1 2 1 1 1 1 1 1 1 1 1 1 1 2 2 2 2 2 2 1 1 1 1 1 1 1 1 1 1 1 1 0 0 0 0 0 0
2 2 2 2 2 1 2 2 2 1 1 1 1 1 1 1 1 1 1 2 2 2 2 2 2 2 1 1 1 1 1 1 1 1 1 1 1 1 0 0 0 0 0
3 3 3 3 2 2 2 2 2 2 1 1 1 1 1 1 1 1 2 2 2 2 2 2 2 2 2 1 1 1 1 1 1 1 1 1 1 1 1 0 0 0 0
4 4 4 3 3 3 2 2 2 2 1 1 1 1 1 1 1 1 2 2 2 2 2 3 2 2 2 2 1 1 1 1 1 1 1 1 1 1 1 0 0 0 0
5 5 5 4 3 3 3 3 2 2 2 1 1 1 1 1 1 1 1 2 2 2 2 2 2 2 2 2 2 2 1 1 1 1 1 1 1 1 1 0 0 0 0
6 6 5 4 4 3 3 3 3 2 2 2 1 1 1 1 1 1 1 1 2 2 2 2 2 2 2 2 2 2 2 2 1 1 1 1 1 1 1 0 0 0 0
6 6 5 4 4 4 3 3 3 3 2 2 1 1 1 1 1 1 1 1 2 2 2 2 2 2 2 2 2 2 2 2 1 1 1 1 1 1 1 0 0 0 0
6 5 5 4 4 4 3 3 3 2 2 2 2 1 1 1 1 1 1 1 2 2 1 1 1 2 2 2 1 1 1 1 1 1 1 1 1 1 1 1 0 0 0
5 4 4 4 3 3 3 3 2 2 2 2 1 1 1 1 1 1 1 1 1 1 1 1 1 1 1 1 1 1 1 1 1 1 1 1 1 1 1 1 1 0 0
4 4 3 3 3 3 2 2 2 2 2 1 1 1 1 1 1 1 1 1 1 1 1 1 1 1 1 1 1 1 1 1 1 1 1 1 1 1 1 1 1 1 0
4 3 3 3 3 2 2 2 2 2 1 1 1 1 1 1 1 1 0 0 0 1 1 1 1 1 1 1 1 0 0 0 0 1 1 1 1 1 1 1 1 1 1
4 3 3 3 2 2 2 2 1 1 1 1 1 1 1 1 1 0 0 0 0 0 0 1 1 0 0 0 0 0 0 0 0 0 0 0 0 1 1 1 1 1 1
4 4 3 3 2 2 2 1 1 1 1 1 1 1 1 1 0 0 0 0 0 0 0 0 0 0 0 0 0 0 0 0 0 0 0 0 0 0 0 0 0 0 0
4 3 3 2 2 2 1 1 1 1 1 1 1 1 1 0 0 0 0 0 0 0 0 0 0 0 0 0 0 0 0 0 0 0 0 0 0 0 0 0 0 0 0
3 2 2 2 2 1 1 1 1 1 1 1 1 0 0 0 0 0 0 0 0 0 0 0 0 0 0 0 0 0 0 0 0 0 0 0 0 0 0 0 0 0 0
2 2 1 1 1 1 1 1 1 1 1 1 0 0 0 0 0 0 0 0 0 0 0 0 0 0 0 0 0 0 0 0 0 0 0 0 0 0 0 0 0 0 0
1 1 1 1 1 1 1 1 1 1 0 0 0 0 0 0 0 0 0 0 0 0 0 0 0 0 0 0 0 0 0 0 0 0 0 0 0 0 0 0 0 0 0
0 0 0 0 0 0 0 0 0 0 0 0 0 0 0 0 0 0 0 0 0 0 0 0 0 0 0 0 0 0 0 0 0 0 0 0 0 0 0 0 0 0 0
0 0 0 0 0 0 0 0 0 0 0 0 0 0 0 0 0 0 0 0 0 0 0 0 0 0 0 0 0 0 0 0 0 0 0 0 0 0 0 0 0 0 0
0 0 0 0 0 0 0 0 0 0 0 0 0 0 0 0 0 0 0 0 0 0 0 0 0 0 0 0 0 0 0 0 0 0 0 0 0 0 0 0 0 0 0
0 0 0 0 0 0 0 0 0 0 0 0 0 0 0 0 0 0 0 0 0 0 0 0 0 0 0 0 0 0 0 0 0 0 0 0 0 0 0 0 0 0 0
0 0 0 0 0 0 0 0 0 0 0 0 0 0 0 0 0 0 0 0 0 0 0 0 0 0 0 0 0 0 0 0 0 0 0 0 0 0 0 0 0 0 0
0 0 0 0 0 0 0 0 0 0 0 0 0 0 0 0 0 0 0 0 0 0 0 0 0 0 0 0 0 0 0 0 0 0 0 0 0 0 0 0 0 0 0
0 0 0 0 0 0 0 0 0 0 0 0 0 0 0 0 0 0 0 0 0 0 0 0 0 0 0 0 0 0 0 0 0 0 0 0 0 0 0 0 0 0 0
0 0 0 0 0 0 0 0 0 0 0 0 0 0 0 0 0 0 0 0 0 0 0 0 0 0 0 0 0 0 0 0 0 0 0 0 0 0 0 0 0 0 0
0 0 0 0 0 0 0 0 0 0 0 0 0 0 0 0 0 0 0 0 0 0 0 0 0 0 0 0 0 0 0 0 0 0 0 0 0 0 0 0 0 0 0
Wind_Speed
5 5 3 2 2 3 4 5 5 5 5 5 6 7 7 7 7 6 4 14 17 18 18 17 17 17 17 16 16 16 15 15 15 15 16 16 16 16 16 16 16 15 15
4 3 3 2 3 4 3 2 3 3 3 4 5 6 6 7 7 7 6 9 18 18 19 19 19 19 18 17 17 16 15 15 14 14 15 15 15 15 15 15 15 15 15
5 4 3 3 3 3 3 2 3 3 4 5 5 7 6 7 7 7 6 5 7 16 20 20 20 19 19 19 18 17 16 15 15 14 15 15 15 14 14 14 15 15 15
5 4 3 2 2 2 1 2 2 3 4 4 5 6 6 6 7 8 7 7 6 7 14 22 21 19 19 20 20 18 17 16 15 15 15 15 15 14 14 14 14 14 14
6 3 3 2 1 1 1 3 2 2 4 5 5 6 6 7 7 9 8 7 7 6 6 12 21 21 21 21 20 19 18 17 16 16 16 16 15 14 14 14 14 13 14
5 4 3 3 2 1 1 2 3 3 3 4 7 8 6 8 8 8 9 8 6 7 7 8 9 14 20 20 20 20 19 18 17 17 17 16 16 15 15 14 14 14 14
5 4 4 3 3 3 3 3 3 4 4 3 4 6 7 9 11 9 7 6 6 5 4 5 4 6 8 18 19 19 20 20 18 18 17 17 17 16 16 16 15 15 15
5 5 5 4 4 3 3 4 3 3 4 3 3 4 5 6 6 5 3 3 4 3 4 5 4 5 5 6 11 18 19 19 19 18 17 17 17 16 16 16 16 15 15
5 5 5 5 4 4 4 5 4 5 4 4 3 3 3 4 5 5 5 4 3 2 2 3 4 4 4 4 6 14 18 17 17 17 16 15 15 15 15 15 15 15 15
6 6 6 6 5 5 5 6 5 4 4 4 4 4 5 4 3 4 4 4 5 4 4 4 4 3 2 2 2 5 12 13 13 13 13 13 12 13 14 14 14 15 15
6 7 7 6 6 5 5 6 4 4 3 4 4 3 3 4 5 4 5 5 4 4 3 4 3 3 3 2 1 2 4 6 7 8 9 10 10 10 11 12 13 14 15
6 8 7 6 6 6 6 5 5 5 5 4 3 3 3 3 2 3 4 5 4 4 3 2 3 3 3 3 4 5 3 3 4 4 5 6 7 8 8 9 11 13 14
5 7 7 6 6 5 5 4 4 4 4 4 3 2 2 2 2 2 3 4 5 4 2 1 2 3 3 3 3 2 3 3 3 3 3 3 4 5 6 7 9 11 13
4 5 6 6 6 6 6 5 4 4 4 3 3 2 2 2 2 2 2 3 4 3 2 2 1 3 3 2 2 1 1 4 3 3 2 3 3 4 6 7 9 10 12
3 4 5 5 5 5 4 3 3 3 2 2 2 2 1 2 2 2 2 2 2 3 3 3 3 3 3 2 1 2 0 3 3 2 2 2 3 4 5 7 8 10 12
0 2 3 3 3 3 3 3 2 2 2 2 2 0 1 1 1 2 2 2 1 2 2 3 3 4 5 5 3 3 2 3 3 3 2 2 3 4 5 7 9 10 12
3 1 1 1 1 2 2 2 2 2 1 1 1 2 2 3 3 3 3 2 2 2 2 2 2 3 4 5 4 4 2 0 2 4 3 3 2 4 5 7 9 10 12
5 5 3 2 1 0 0 1 0 2 3 4 4 5 5 4 4 4 3 4 3 2 2 3 3 3 4 5 4 4 3 2 1 2 3 2 2 4 6 7 9 10 11
4 4 4 4 3 3 2 2 4 5 6 6 6 6 6 6 6 4 5 5 4 4 2 3 3 3 3 5 5 5 4 3 2 1 1 2 3 4 5 7 8 9 10
3 3 3 3 3 3 3 3 5 6 7 7 7 8 7 7 6 6 7 7 6 4 4 4 4 5 5 6 6 5 4 3 3 3 3 2 3 4 4 5 7 8 9
2 1 1 1 2 3 4 4 5 7 6 7 7 7 7 8 10 8 7 6 7 7 6 5 5 5 6 6 7 5 5 3 2 3 3 2 2 2 2 3 6 8 9
1 0 0 2 3 5 7 7 6 5 5 5 5 5 6 6 7 8 9 9 9 7 6 6 5 5 6 6 5 5 4 4 3 3 3 2 2 2 3 3 5 8 9
2 1 2 5 6 6 9 9 7 5 5 5 5 4 6 8 7 4 2 4 6 7 6 5 5 4 5 5 6 6 4 4 2 3 3 2 2 3 2 2 4 6 8
3 2 4 6 6 6 9 10 7 6 5 6 6 6 6 6 8 7 3 3 4 4 4 3 2 2 3 4 6 6 5 4 1 2 4 3 3 2 2 2 3 4 6
4 4 5 6 6 4 7 9 7 3 4 6 7 7 7 6 10 10 5 5 5 3 2 2 3 3 5 6 6 5 7 7 5 2 4 3 3 3 2 2 1 3 4
5 5 6 6 6 5 5 7 7 1 3 5 6 7 10 8 9 10 6 6 6 5 7 6 3 3 3 4 6 5 5 5 6 4 5 4 3 3 3 2 1 1 1
Wind_Direction
208 228 236 223 252 252 209 209 231 226 231 247 251 253 245 245 249 244 222 196 201 208 214 218 223 228 233 234 233 233 232 229 225 221 219 220 222 222 221 221 219 218 216
213 215 214 212 241 264 279 250 266 266 256 259 264 267 258 256 255 248 242 211 213 215 217 221 224 227 230 231 232 231 228 226 222 218 216 217 219 220 220 220 219 217 215
214 209 222 217 233 247 259 267 290 297 283 279 273 269 263 252 253 253 250 247 224 219 222 224 226 227 228 230 231 229 226 222 217 214 214 214 215 217 218 219 218 217 214
212 205 207 230 257 277 297 307 279 292 298 300 296 293 289 280 267 256 247 238 235 235 220 222 225 226 227 228 229 229 225 219 215 212 212 212 213 214 215 216 217 215 213
198 190 206 215 238 293 303 292 290 275 282 287 286 276 273 273 270 269 263 252 240 236 231 215 218 222 224 226 227 226 223 219 214 212 212 212 213 212 213 214 215 214 213
179 180 187 196 202 219 250 265 274 278 271 274 284 287 290 283 274 264 261 258 247 242 242 239 212 219 221 224 224 223 222 219 215 214 213 213 214 212 212 213 214 214 214
186 181 194 181 189 204 218 232 250 266 270 270 276 281 274 268 263 255 246 241 243 253 260 251 211 206 214 223 224 223 222 220 216 216 215 215 214 213 213 214 214 214 215
190 194 197 198 200 207 221 229 236 247 259 253 247 269 282 277 273 285 285 260 254 248 257 267 243 219 215 199 216 222 224 222 220 219 218 217 216 215 215 215 216 215 216
207 211 207 204 204 212 223 226 222 233 247 261 252 248 269 277 328 309 317 312 307 295 288 300 280 249 235 220 206 215 220 219 220 221 221 219 218 217 217 217 218 218 218
214 216 216 209 207 216 219 226 225 224 234 254 266 250 250 279 290 304 313 323 332 323 313 307 306 307 296 275 236 209 214 215 217 224 226 226 224 221 220 220 222 224 223
216 222 222 219 219 224 224 227 226 221 223 239 251 272 285 272 249 258 289 310 318 315 314 312 321 331 336 341 6 68 199 213 222 226 231 233 231 227 223 224 230 233 231
218 216 218 217 220 222 220 223 224 230 227 237 250 259 265 271 284 267 286 305 308 308 313 340 352 346 345 13 45 71 115 181 225 236 241 245 246 240 236 236 239 243 244
221 211 209 209 214 214 211 211 217 233 230 231 241 259 274 282 290 292 295 305 308 303 321 12 19 9 7 39 71 72 149 175 204 222 244 259 265 267 263 261 259 257 257
233 211 205 208 209 209 209 200 212 220 215 219 243 258 287 292 306 303 301 312 315 320 343 13 28 51 25 37 59 255 198 184 196 205 229 253 267 276 278 278 275 271 267
237 209 202 206 208 207 208 195 211 227 210 211 238 249 273 320 312 309 310 312 321 329 336 13 16 22 4 9 48 295 1 169 189 211 233 260 276 282 284 283 281 276 271
256 194 190 196 203 206 209 206 223 210 201 215 227 182 42 351 336 319 318 332 350 336 326 354 8 4 2 352 11 348 1 162 186 200 219 253 284 296 299 297 292 285 278
40 37 71 145 194 213 217 210 215 180 185 168 104 95 83 55 21 0 358 5 13 360 334 348 14 7 11 359 352 344 338 228 184 200 217 241 280 303 307 304 301 294 286
47 41 36 34 29 323 261 230 242 99 94 84 73 70 59 57 42 30 9 21 17 15 8 6 13 14 17 3 354 351 0 9 41 173 217 254 288 309 312 311 309 306 296
59 52 37 34 30 32 26 44 72 81 80 76 71 66 57 47 32 21 35 22 18 24 30 39 35 25 21 8 6 10 17 4 0 98 205 257 286 303 313 316 318 318 313
56 54 42 42 42 37 41 64 83 86 85 79 71 66 59 51 31 18 41 22 18 18 36 43 40 30 20 8 10 3 10 8 11 14 7 351 317 300 311 328 341 343 336
81 51 52 63 66 68 63 77 100 105 102 97 92 89 82 77 63 52 53 33 29 28 28 30 33 30 16 7 4 352 358 346 24 18 343 349 341 339 337 353 8 9 3
151 207 218 103 90 82 70 75 97 105 102 101 106 111 114 84 78 77 74 63 53 48 33 29 29 23 14 2 346 342 346 349 351 356 339 343 357 4 9 20 21 27 27
168 181 122 101 94 78 69 67 77 99 89 80 71 63 77 66 48 31 70 89 73 66 56 51 38 16 11 351 341 344 348 348 340 334 333 343 356 1 14 29 35 47 46
172 163 121 110 107 84 62 53 58 95 88 78 67 64 72 54 27 5 4 62 80 65 44 62 50 0 4 342 340 344 343 339 347 15 356 345 343 341 357 21 32 59 66
168 157 134 126 117 98 61 47 32 97 97 87 74 53 62 57 22 14 23 40 42 25 319 292 288 305 320 327 338 357 0 359 355 13 10 349 335 320 328 1 26 68 84
169 162 147 141 140 129 83 54 21 338 136 120 106 87 67 60 39 29 31 35 22 350 337 327 299 299 334 4 8 18 10 356 353 351 1 346 340 341 335 331 333 356 88